Location: Dammartin
(48.9032°N, 1.6195°E)
Time: 13:45:34
(UTC+00:00)

YUBILEINY - Pass Details

Date: 12 December 2023
Orbit: 1479 x 1508 km, 82.5° (Epoch: 02 March)

Event Time Altitude Azimuth Distance (km) Brightness Sun altitude
Rises 21:29:25 0° 343° (NNW) 4,624 ? -52.6°
Reaches altitude 10° 21:33:11 10° 328° (NNW) 3,636 ? -53.1°
Maximum altitude 21:39:04 21° 285° (WNW) 2,867 ? -53.9°
Enters shadow 21:40:10 20° 275° (W) 2,896 ? -54.1°
